| time (UTC) | temp C | wind direction | speed KPH | gust KPH | rain 1hr cm | rain 24hr cm | rain mn cm | humidity % | barometer mb |
| 20260507090153 | 13 | 177 | 1.6 | 9.7 | 0.00 | 0.56 | 0.03 | 80 | 1012.5 |
| 20260507085553 | 13 | 304 | 0.0 | 4.8 | 0.00 | 0.56 | 0.03 | 80 | 1012.4 |
| 20260507085052 | 13 | 348 | 0.0 | 8.0 | 0.00 | 0.56 | 0.03 | 81 | 1012.5 |
| 20260507084552 | 13 | 251 | 1.6 | 8.0 | 0.00 | 0.56 | 0.03 | 81 | 1012.2 |
| 20260507084051 | 13 | 218 | 0.0 | 4.8 | 0.00 | 0.56 | 0.03 | 82 | 1012.3 |
| 20260507083550 | 13 | 250 | 1.6 | 6.4 | 0.00 | 0.56 | 0.03 | 82 | 1012.3 |
| 20260507083050 | 13 | 272 | 1.6 | 6.4 | 0.00 | 0.56 | 0.03 | 83 | 1012.3 |
| 20260507082550 | 13 | 338 | 0.0 | 6.4 | 0.00 | 0.56 | 0.03 | 84 | 1012.2 |
| 20260507082049 | 12 | 244 | 0.0 | 6.4 | 0.00 | 0.56 | 0.03 | 84 | 1012.2 |
| 20260507081548 | 13 | 214 | 0.0 | 8.0 | 0.00 | 0.56 | 0.03 | 84 | 1012.1 |
| 20260507081048 | 12 | 220 | 1.6 | 9.7 | 0.00 | 0.56 | 0.03 | 84 | 1012.1 |
| 20260507080547 | 12 | 297 | 1.6 | 9.7 | 0.00 | 0.56 | 0.03 | 87 | 1012.0 |
| 20260507080148 | 12 | 205 | 1.6 | 6.4 | 0.00 | 0.56 | 0.03 | 88 | 1011.9 |
| 20260507075558 | 12 | 231 | 1.6 | 4.8 | 0.00 | 0.56 | 0.03 | 87 | 1011.9 |
| 20260507075059 | 12 | 331 | 1.6 | 9.7 | 0.00 | 0.56 | 0.03 | 87 | 1011.9 |
| 20260507074607 | 12 | 263 | 1.6 | 9.7 | 0.00 | 0.56 | 0.03 | 88 | 1011.9 |
| 20260507074053 | 13 | 218 | 0.0 | 8.0 | 0.00 | 0.56 | 0.03 | 88 | 1011.8 |
| 20260507073541 | 13 | 237 | 0.0 | 6.4 | 0.00 | 0.56 | 0.03 | 88 | 1011.7 |
| 20260507073043 | 13 | 228 | 0.0 | 6.4 | 0.00 | 0.56 | 0.03 | 89 | 1011.7 |
| 20260507072538 | 13 | 91 | 0.0 | 6.4 | 0.00 | 0.56 | 0.03 | 90 | 1011.7 |
| 20260507072036 | 12 | 243 | 1.6 | 6.4 | 0.00 | 0.56 | 0.03 | 90 | 1011.6 |
| 20260507071537 | 12 | 318 | 0.0 | 3.2 | 0.00 | 0.56 | 0.03 | 91 | 1011.7 |
| 20260507071034 | 12 | 281 | 0.0 | 4.8 | 0.00 | 0.56 | 0.03 | 92 | 1011.5 |
| 20260507070534 | 12 | 284 | 0.0 | 3.2 | 0.00 | 0.56 | 0.03 | 92 | 1011.5 |
| 20260507070035 | 12 | 255 | 0.0 | 3.2 | 0.00 | 0.56 | 0.03 | 93 | 1011.5 |
| 20260507065532 | 12 | 267 | 0.0 | 6.4 | 0.00 | 0.56 | 0.03 | 93 | 1011.4 |
| 20260507065032 | 12 | 222 | 1.6 | 6.4 | 0.00 | 0.56 | 0.03 | 93 | 1011.4 |
| 20260507064532 | 12 | 354 | 0.0 | 0.0 | 0.00 | 0.56 | 0.03 | 94 | 1011.5 |
| 20260507064033 | 12 | 353 | 0.0 | 1.6 | 0.00 | 0.56 | 0.03 | 94 | 1011.4 |
| 20260507063530 | 12 | 353 | 0.0 | 3.2 | 0.00 | 0.56 | 0.03 | 94 | 1011.5 |
| 20260507063045 | 11 | 353 | 0.0 | 3.2 | 0.00 | 0.56 | 0.03 | 94 | 1011.4 |
| 20260507062530 | 11 | 31 | 0.0 | 1.6 | 0.00 | 0.56 | 0.03 | 94 | 1011.3 |
| 20260507062030 | 11 | 52 | 0.0 | 3.2 | 0.00 | 0.56 | 0.03 | 94 | 1011.3 |
| 20260507061532 | 11 | 52 | 0.0 | 1.6 | 0.00 | 0.56 | 0.03 | 94 | 1011.2 |
| 20260507061031 | 11 | 52 | 0.0 | 1.6 | 0.00 | 0.56 | 0.03 | 95 | 1011.1 |
| 20260507060528 | 11 | 307 | 0.0 | 0.0 | 0.00 | 0.56 | 0.03 | 95 | 1011.1 |
| 20260507060128 | 11 | 62 | 0.0 | 0.0 | 0.00 | 0.56 | 0.03 | 95 | 1011.1 |
| 20260507055526 | 11 | 62 | 0.0 | 0.0 | 0.00 | 0.56 | 0.03 | 95 | 1010.9 |
| 20260507055026 | 11 | 77 | 0.0 | 0.0 | 0.00 | 0.56 | 0.03 | 95 | 1010.9 |
| 20260507054525 | 11 | 77 | 0.0 | 0.0 | 0.00 | 0.56 | 0.03 | 95 | 1010.8 |
| 20260507054024 | 11 | 91 | 0.0 | 0.0 | 0.00 | 0.56 | 0.03 | 95 | 1010.7 |
| 20260507053524 | 11 | 80 | 0.0 | 0.0 | 0.00 | 0.56 | 0.03 | 95 | 1010.6 |
| 20260507053024 | 10 | 80 | 0.0 | 0.0 | 0.00 | 0.56 | 0.03 | 95 | 1010.7 |
| 20260507052523 | 10 | 80 | 0.0 | 0.0 | 0.00 | 0.56 | 0.03 | 95 | 1010.5 |
| 20260507052023 | 10 | 80 | 0.0 | 0.0 | 0.00 | 0.56 | 0.03 | 95 | 1010.6 |
| 20260507051524 | 10 | 80 | 0.0 | 0.0 | 0.00 | 0.56 | 0.03 | 95 | 1010.7 |
| 20260507051022 | 10 | 80 | 0.0 | 0.0 | 0.00 | 0.56 | 0.03 | 95 | 1010.6 |
| 20260507050521 | 10 | 80 | 0.0 | 0.0 | 0.00 | 0.56 | 0.03 | 95 | 1010.6 |
| 20260507050023 | 10 | 80 | 0.0 | 0.0 | 0.00 | 0.58 | 0.03 | 95 | 1010.5 |
| 20260507045520 | 10 | 80 | 0.0 | 0.0 | 0.00 | 0.58 | 0.03 | 95 | 1010.5 |
| 20260507045020 | 10 | 80 | 0.0 | 0.0 | 0.00 | 0.58 | 0.03 | 95 | 1010.4 |
| 20260507044519 | 9 | 80 | 0.0 | 0.0 | 0.00 | 0.58 | 0.03 | 95 | 1010.3 |
| 20260507044018 | 9 | 80 | 0.0 | 0.0 | 0.00 | 0.58 | 0.03 | 95 | 1010.2 |
| 20260507043518 | 9 | 80 | 0.0 | 0.0 | 0.00 | 0.58 | 0.03 | 95 | 1010.1 |
| 20260507043017 | 9 | 80 | 0.0 | 0.0 | 0.00 | 0.58 | 0.03 | 95 | 1010.0 |
| 20260507042517 | 9 | 80 | 0.0 | 0.0 | 0.00 | 0.58 | 0.03 | 95 | 1010.0 |
| 20260507042016 | 9 | 80 | 0.0 | 0.0 | 0.03 | 0.58 | 0.03 | 95 | 1010.0 |
| 20260507041515 | 9 | 80 | 0.0 | 0.0 | 0.03 | 0.58 | 0.03 | 95 | 1010.0 |
| 20260507041014 | 9 | 80 | 0.0 | 0.0 | 0.03 | 0.58 | 0.03 | 95 | 1009.9 |
| 20260507040513 | 9 | 80 | 0.0 | 4.8 | 0.03 | 0.58 | 0.03 | 95 | 1009.8 |
| 20260507040013 | 9 | 80 | 0.0 | 4.8 | 0.03 | 0.58 | 0.03 | 95 | 1009.8 |
| 20260507035513 | 9 | 271 | 0.0 | 1.6 | 0.03 | 0.58 | 0.03 | 95 | 1009.7 |
| 20260507035012 | 9 | 271 | 0.0 | 1.6 | 0.03 | 0.58 | 0.03 | 95 | 1009.5 |
| 20260507034526 | 8 | 271 | 0.0 | 1.6 | 0.03 | 0.58 | 0.03 | 95 | 1009.4 |
| 20260507034014 | 9 | 271 | 0.0 | 1.6 | 0.03 | 0.58 | 0.03 | 95 | 1009.4 |
| 20260507033514 | 9 | 271 | 0.0 | 1.6 | 0.03 | 0.58 | 0.03 | 95 | 1009.4 |
| 20260507033010 | 9 | 271 | 0.0 | 1.6 | 0.03 | 0.58 | 0.03 | 95 | 1009.4 |
| 20260507032508 | 9 | 38 | 0.0 | 0.0 | 0.03 | 0.58 | 0.03 | 95 | 1009.4 |
| 20260507032013 | 9 | 39 | 0.0 | 1.6 | 0.00 | 0.56 | 0.00 | 94 | 1009.3 |
| 20260507031507 | 9 | 39 | 0.0 | 1.6 | 0.00 | 0.56 | 0.00 | 94 | 1009.3 |
| 20260507031007 | 9 | 322 | 0.0 | 1.6 | 0.00 | 0.56 | 0.00 | 95 | 1009.2 |
| 20260507030507 | 9 | 322 | 0.0 | 1.6 | 0.00 | 0.56 | 0.00 | 95 | 1009.3 |
| 20260507030010 | 9 | 322 | 0.0 | 0.0 | 0.00 | 0.56 | 0.00 | 95 | 1009.3 |
| 20260507025506 | 10 | 322 | 0.0 | 3.2 | 0.00 | 0.56 | 0.00 | 95 | 1009.3 |
| 20260507025005 | 9 | 322 | 0.0 | 3.2 | 0.00 | 0.56 | 0.00 | 95 | 1009.3 |
| 20260507024505 | 9 | 231 | 0.0 | 0.0 | 0.00 | 0.56 | 0.00 | 95 | 1009.2 |
| 20260507024007 | 9 | 231 | 0.0 | 0.0 | 0.00 | 0.56 | 0.00 | 95 | 1009.2 |
| 20260507023505 | 9 | 231 | 0.0 | 0.0 | 0.00 | 0.56 | 0.00 | 94 | 1009.1 |
| 20260507023004 | 9 | 231 | 0.0 | 0.0 | 0.00 | 0.56 | 0.00 | 94 | 1009.1 |
| 20260507022503 | 10 | 231 | 0.0 | 0.0 | 0.00 | 0.56 | 0.00 | 95 | 1009.1 |
| 20260507022003 | 10 | 231 | 0.0 | 0.0 | 0.00 | 0.56 | 0.00 | 95 | 1009.0 |
| 20260507021503 | 10 | 231 | 0.0 | 0.0 | 0.00 | 0.56 | 0.00 | 94 | 1009.0 |
| 20260507021002 | 10 | 232 | 0.0 | 0.0 | 0.00 | 0.56 | 0.00 | 95 | 1009.1 |
| 20260507020502 | 10 | 232 | 0.0 | 0.0 | 0.00 | 0.56 | 0.00 | 94 | 1009.0 |
| 20260507020001 | 10 | 232 | 0.0 | 0.0 | 0.00 | 0.56 | 0.00 | 94 | 1009.1 |
| 20260507015600 | 10 | 232 | 0.0 | 0.0 | 0.00 | 0.56 | 0.00 | 95 | 1009.1 |
| 20260507015059 | 10 | 232 | 0.0 | 0.0 | 0.00 | 0.56 | 0.00 | 95 | 1009.1 |
| 20260507014603 | 10 | 232 | 0.0 | 0.0 | 0.00 | 0.56 | 0.00 | 94 | 1009.0 |
| 20260507014059 | 10 | 232 | 0.0 | 0.0 | 0.00 | 0.56 | 0.00 | 94 | 1009.1 |
| 20260507013557 | 10 | 232 | 0.0 | 0.0 | 0.00 | 0.56 | 0.00 | 95 | 1009.1 |
| 20260507013117 | 10 | 194 | 0.0 | 0.0 | 0.00 | 0.56 | 0.00 | 95 | 1009.0 |
| 20260507012557 | 10 | 194 | 0.0 | 0.0 | 0.00 | 0.56 | 0.00 | 94 | 1009.0 |
| 20260507012057 | 10 | 194 | 0.0 | 0.0 | 0.00 | 0.56 | 0.00 | 94 | 1008.9 |
| 20260507011604 | 10 | 194 | 0.0 | 0.0 | 0.00 | 0.56 | 0.00 | 94 | 1008.9 |
| 20260507011100 | 10 | 194 | 0.0 | 0.0 | 0.00 | 0.56 | 0.00 | 94 | 1008.9 |
| 20260507010558 | 10 | 194 | 0.0 | 0.0 | 0.00 | 0.56 | 0.00 | 94 | 1008.8 |
| 20260507010105 | 10 | 194 | 0.0 | 0.0 | 0.00 | 0.56 | 0.00 | 94 | 1008.8 |
| 20260507005555 | 10 | 194 | 0.0 | 0.0 | 0.00 | 0.56 | 0.00 | 94 | 1008.7 |
| 20260507005053 | 10 | 194 | 0.0 | 0.0 | 0.00 | 0.56 | 0.00 | 94 | 1008.6 |
| 20260507004553 | 10 | 194 | 0.0 | 0.0 | 0.00 | 0.56 | 0.00 | 94 | 1008.6 |
| 20260507004055 | 10 | 194 | 0.0 | 0.0 | 0.00 | 0.56 | 0.00 | 94 | 1008.6 |
| 20260507003552 | 10 | 194 | 0.0 | 0.0 | 0.00 | 0.56 | 0.00 | 94 | 1008.5 |
| 20260507003051 | 10 | 194 | 0.0 | 0.0 | 0.00 | 0.56 | 0.00 | 94 | 1008.4 |
| 20260507002551 | 10 | 194 | 0.0 | 0.0 | 0.00 | 0.56 | 0.00 | 94 | 1008.5 |
| 20260507002051 | 10 | 194 | 0.0 | 0.0 | 0.00 | 0.56 | 0.00 | 94 | 1008.4 |
| 20260507001553 | 11 | 194 | 0.0 | 0.0 | 0.00 | 0.56 | 0.00 | 94 | 1008.4 |
| 20260507001049 | 11 | 194 | 0.0 | 0.0 | 0.00 | 0.56 | 0.00 | 94 | 1008.3 |
| 20260507000552 | 11 | 194 | 0.0 | 0.0 | 0.00 | 0.56 | 0.00 | 94 | 1008.2 |
| 20260507000047 | 11 | 194 | 0.0 | 0.0 | 0.00 | 0.56 | 0.00 | 94 | 1008.2 |
| 20260506235545 | 11 | 194 | 0.0 | 0.0 | 0.00 | 0.58 | 0.00 | 94 | 1008.1 |
| 20260506235045 | 11 | 194 | 0.0 | 0.0 | 0.00 | 0.58 | 0.00 | 94 | 1008.1 |
| 20260506234545 | 11 | 194 | 0.0 | 0.0 | 0.00 | 0.58 | 0.00 | 94 | 1008.0 |
| 20260506234044 | 11 | 194 | 0.0 | 0.0 | 0.00 | 0.58 | 0.00 | 94 | 1007.9 |
| 20260506233546 | 11 | 194 | 0.0 | 0.0 | 0.00 | 0.58 | 0.00 | 94 | 1007.8 |
| 20260506233057 | 11 | 194 | 0.0 | 0.0 | 0.00 | 0.58 | 0.00 | 94 | 1007.8 |
| 20260506232543 | 11 | 194 | 0.0 | 0.0 | 0.00 | 0.58 | 0.00 | 94 | 1008.0 |
| 20260506232044 | 11 | 194 | 0.0 | 0.0 | 0.00 | 0.58 | 0.00 | 94 | 1008.1 |
| 20260506231544 | 11 | 194 | 0.0 | 0.0 | 0.00 | 0.58 | 0.00 | 94 | 1008.1 |
| 20260506231045 | 11 | 194 | 0.0 | 0.0 | 0.00 | 0.58 | 0.00 | 94 | 1008.0 |
| 20260506230546 | 12 | 194 | 0.0 | 0.0 | 0.00 | 0.58 | 0.00 | 94 | 1007.9 |
| 20260506230145 | 12 | 194 | 0.0 | 0.0 | 0.00 | 0.58 | 0.00 | 94 | 1007.8 |
| 20260506225559 | 12 | 194 | 0.0 | 0.0 | 0.00 | 0.71 | 0.00 | 94 | 1007.7 |
| 20260506225053 | 12 | 194 | 0.0 | 0.0 | 0.00 | 0.71 | 0.00 | 94 | 1007.7 |
| 20260506224554 | 12 | 194 | 0.0 | 0.0 | 0.00 | 0.71 | 0.00 | 94 | 1007.8 |
| 20260506224054 | 12 | 194 | 0.0 | 0.0 | 0.00 | 0.71 | 0.00 | 94 | 1007.9 |
| 20260506223554 | 12 | 194 | 0.0 | 0.0 | 0.00 | 0.71 | 0.00 | 94 | 1008.0 |
| 20260506223051 | 12 | 197 | 0.0 | 0.0 | 0.00 | 0.71 | 0.00 | 93 | 1007.9 |
| 20260506222550 | 12 | 184 | 0.0 | 0.0 | 0.00 | 0.71 | 0.00 | 93 | 1008.0 |
| 20260506222050 | 12 | 184 | 0.0 | 0.0 | 0.00 | 0.71 | 0.00 | 93 | 1007.9 |
| 20260506221556 | 12 | 116 | 0.0 | 0.0 | 0.00 | 0.71 | 0.00 | 93 | 1007.8 |
| 20260506221048 | 12 | 116 | 0.0 | 0.0 | 0.00 | 0.71 | 0.00 | 93 | 1007.8 |
| 20260506220548 | 12 | 116 | 0.0 | 0.0 | 0.00 | 0.71 | 0.00 | 93 | 1007.8 |
| 20260506220149 | 12 | 116 | 0.0 | 0.0 | 0.03 | 0.71 | 0.00 | 93 | 1007.8 |
| 20260506215550 | 12 | 116 | 0.0 | 0.0 | 0.05 | 0.91 | 0.71 | 93 | 1007.6 |
| 20260506215054 | 12 | 116 | 0.0 | 0.0 | 0.10 | 0.91 | 0.71 | 93 | 1007.5 |
| 20260506214552 | 12 | 116 | 0.0 | 0.0 | 0.13 | 0.91 | 0.71 | 93 | 1007.5 |
| 20260506214050 | 12 | 116 | 0.0 | 0.0 | 0.15 | 0.91 | 0.71 | 93 | 1007.4 |
| 20260506213551 | 12 | 116 | 0.0 | 0.0 | 0.20 | 0.91 | 0.71 | 93 | 1007.3 |
| 20260506213050 | 12 | 116 | 0.0 | 0.0 | 0.23 | 0.91 | 0.71 | 93 | 1007.3 |
| 20260506212549 | 12 | 220 | 0.0 | 0.0 | 0.23 | 0.91 | 0.71 | 93 | 1007.3 |
| 20260506212049 | 12 | 222 | 0.0 | 0.0 | 0.25 | 0.91 | 0.71 | 92 | 1007.5 |
| 20260506211556 | 12 | 222 | 0.0 | 0.0 | 0.30 | 0.91 | 0.71 | 93 | 1007.4 |
| 20260506211050 | 12 | 222 | 0.0 | 0.0 | 0.33 | 0.91 | 0.71 | 92 | 1007.4 |
| 20260506210549 | 12 | 239 | 0.0 | 0.0 | 0.33 | 0.91 | 0.71 | 92 | 1007.4 |
| 20260506210148 | 13 | 244 | 0.0 | 0.0 | 0.33 | 0.89 | 0.69 | 92 | 1007.6 |
| 20260506205555 | 13 | 244 | 0.0 | 0.0 | 0.28 | 1.12 | 0.64 | 92 | 1007.6 |
| 20260506205055 | 13 | 244 | 0.0 | 0.0 | 0.23 | 1.09 | 0.61 | 92 | 1007.6 |
| 20260506204555 | 13 | 244 | 0.0 | 0.0 | 0.20 | 1.04 | 0.56 | 92 | 1007.6 |
| 20260506204054 | 13 | 245 | 0.0 | 0.0 | 0.18 | 1.02 | 0.53 | 92 | 1007.9 |
| 20260506203555 | 13 | 245 | 0.0 | 0.0 | 0.15 | 0.99 | 0.51 | 91 | 1008.1 |
| 20260506203054 | 13 | 245 | 0.0 | 0.0 | 0.13 | 0.97 | 0.48 | 91 | 1008.1 |
| 20260506202555 | 13 | 245 | 0.0 | 1.6 | 0.10 | 0.94 | 0.46 | 91 | 1007.9 |
| 20260506202054 | 13 | 216 | 0.0 | 1.6 | 0.08 | 0.91 | 0.43 | 90 | 1007.8 |
| 20260506201554 | 13 | 88 | 0.0 | 0.0 | 0.05 | 0.89 | 0.41 | 90 | 1007.9 |
| 20260506201053 | 13 | 87 | 0.0 | 0.0 | 0.00 | 0.84 | 0.36 | 90 | 1007.8 |
| 20260506200554 | 13 | 87 | 0.0 | 0.0 | 0.00 | 0.84 | 0.36 | 89 | 1007.6 |
| 20260506200153 | 13 | 88 | 0.0 | 0.0 | 0.00 | 0.84 | 0.36 | 89 | 1007.5 |
| 20260506195547 | 13 | 88 | 0.0 | 0.0 | 0.00 | 0.84 | 0.36 | 88 | 1006.8 |
| 20260506195047 | 13 | 88 | 0.0 | 0.0 | 0.00 | 0.84 | 0.36 | 88 | 1006.2 |
| 20260506194550 | 13 | 158 | 0.0 | 0.0 | 0.00 | 0.84 | 0.36 | 89 | 1006.3 |
| 20260506194046 | 13 | 158 | 0.0 | 0.0 | 0.00 | 0.84 | 0.36 | 89 | 1006.6 |
| 20260506193547 | 13 | 160 | 0.0 | 3.2 | 0.00 | 0.84 | 0.36 | 90 | 1006.6 |
| 20260506193046 | 13 | 212 | 0.0 | 3.2 | 0.00 | 0.84 | 0.36 | 90 | 1006.5 |
| 20260506192546 | 13 | 66 | 0.0 | 0.0 | 0.00 | 0.84 | 0.36 | 90 | 1006.5 |
| 20260506192046 | 13 | 62 | 0.0 | 0.0 | 0.00 | 0.84 | 0.36 | 90 | 1006.3 |
| 20260506191546 | 13 | 62 | 0.0 | 0.0 | 0.00 | 0.84 | 0.36 | 90 | 1006.1 |
| 20260506191046 | 13 | 62 | 0.0 | 0.0 | 0.00 | 0.84 | 0.36 | 90 | 1006.1 |
| 20260506190546 | 13 | 62 | 0.0 | 0.0 | 0.00 | 0.84 | 0.36 | 89 | 1006.2 |
| 20260506190145 | 13 | 62 | 0.0 | 0.0 | 0.00 | 0.84 | 0.36 | 89 | 1006.2 |
| 20260506185550 | 13 | 62 | 0.0 | 0.0 | 0.00 | 0.84 | 0.36 | 90 | 1006.0 |
| 20260506185050 | 13 | 62 | 0.0 | 1.6 | 0.00 | 0.84 | 0.36 | 90 | 1006.0 |
| 20260506184551 | 13 | 123 | 0.0 | 1.6 | 0.00 | 0.84 | 0.36 | 90 | 1005.9 |
| 20260506184050 | 13 | 95 | 0.0 | 0.0 | 0.00 | 0.84 | 0.36 | 89 | 1005.9 |
| 20260506183550 | 13 | 95 | 0.0 | 1.6 | 0.00 | 0.84 | 0.36 | 89 | 1005.6 |
| 20260506183049 | 13 | 95 | 0.0 | 1.6 | 0.00 | 0.84 | 0.36 | 88 | 1005.6 |
| 20260506182549 | 13 | 95 | 0.0 | 3.2 | 0.00 | 0.84 | 0.36 | 88 | 1005.5 |
| 20260506182049 | 13 | 95 | 0.0 | 3.2 | 0.00 | 0.84 | 0.36 | 87 | 1005.4 |
| 20260506181549 | 14 | 95 | 0.0 | 4.8 | 0.00 | 0.84 | 0.36 | 87 | 1005.1 |
| 20260506181049 | 14 | 122 | 0.0 | 6.4 | 0.00 | 0.84 | 0.36 | 87 | 1005.1 |
| 20260506180549 | 14 | 122 | 1.6 | 4.8 | 0.00 | 0.84 | 0.36 | 87 | 1005.2 |
| 20260506180150 | 14 | 121 | 0.0 | 4.8 | 0.00 | 0.84 | 0.36 | 87 | 1005.2 |
| 20260506175554 | 14 | 121 | 0.0 | 6.4 | 0.00 | 0.84 | 0.36 | 87 | 1005.1 |
| 20260506175052 | 14 | 121 | 1.6 | 6.4 | 0.00 | 0.84 | 0.36 | 87 | 1005.0 |
| 20260506174552 | 14 | 108 | 0.0 | 4.8 | 0.00 | 0.84 | 0.36 | 87 | 1005.1 |
| 20260506174053 | 14 | 108 | 0.0 | 4.8 | 0.00 | 0.84 | 0.36 | 87 | 1005.1 |
| 20260506173652 | 14 | 141 | 0.0 | 3.2 | 0.00 | 0.84 | 0.36 | 87 | 1005.0 |
| 20260506173105 | 14 | 141 | 0.0 | 3.2 | 0.00 | 0.84 | 0.36 | 87 | 1005.1 |
| 20260506172551 | 14 | 97 | 0.0 | 3.2 | 0.00 | 0.84 | 0.36 | 87 | 1005.1 |
| 20260506172051 | 13 | 97 | 0.0 | 4.8 | 0.00 | 0.84 | 0.36 | 87 | 1005.0 |
| 20260506171557 | 14 | 97 | 0.0 | 4.8 | 0.00 | 0.84 | 0.36 | 88 | 1005.0 |
| 20260506171152 | 13 | 70 | 0.0 | 1.6 | 0.00 | 0.84 | 0.36 | 88 | 1005.1 |
| 20260506170550 | 13 | 70 | 0.0 | 4.8 | 0.00 | 0.84 | 0.36 | 88 | 1004.8 |
| 20260506170151 | 14 | 70 | 0.0 | 4.8 | 0.00 | 0.84 | 0.36 | 88 | 1004.7 |
| 20260506165541 | 14 | 150 | 0.0 | 0.0 | 0.00 | 0.84 | 0.36 | 89 | 1004.8 |
| 20260506165039 | 14 | 150 | 0.0 | 0.0 | 0.00 | 0.84 | 0.36 | 88 | 1004.8 |
| 20260506164551 | 15 | 150 | 0.0 | 0.0 | 0.00 | 0.84 | 0.36 | 88 | 1004.8 |
| 20260506164038 | 15 | 150 | 0.0 | 0.0 | 0.00 | 0.84 | 0.36 | 89 | 1005.1 |
| 20260506163538 | 15 | 150 | 0.0 | 0.0 | 0.00 | 0.84 | 0.36 | 89 | 1005.1 |
| 20260506163041 | 15 | 150 | 0.0 | 0.0 | 0.03 | 0.84 | 0.36 | 90 | 1005.1 |
| 20260506162538 | 14 | 150 | 0.0 | 0.0 | 0.08 | 0.84 | 0.36 | 89 | 1005.2 |
| 20260506162038 | 15 | 150 | 0.0 | 0.0 | 0.18 | 0.84 | 0.36 | 89 | 1005.2 |
| 20260506161538 | 15 | 150 | 0.0 | 0.0 | 0.18 | 0.84 | 0.36 | 90 | 1005.4 |
| 20260506161037 | 15 | 150 | 0.0 | 0.0 | 0.18 | 0.84 | 0.36 | 91 | 1005.5 |
| 20260506160538 | 14 | 150 | 0.0 | 0.0 | 0.18 | 0.84 | 0.36 | 90 | 1005.6 |
| 20260506160136 | 14 | 150 | 0.0 | 1.6 | 0.18 | 0.84 | 0.36 | 90 | 1005.7 |
| 20260506155532 | 14 | 150 | 0.0 | 3.2 | 0.18 | 0.84 | 0.36 | 90 | 1005.7 |
| 20260506155032 | 13 | 225 | 0.0 | 3.2 | 0.18 | 0.84 | 0.36 | 90 | 1005.6 |
| 20260506154532 | 13 | 226 | 0.0 | 3.2 | 0.18 | 0.84 | 0.36 | 89 | 1005.6 |
| 20260506154032 | 13 | 91 | 0.0 | 3.2 | 0.18 | 0.84 | 0.36 | 88 | 1005.1 |
| 20260506153531 | 13 | 308 | 0.0 | 0.0 | 0.15 | 0.81 | 0.33 | 88 | 1005.1 |
| 20260506153031 | 13 | 284 | 0.0 | 3.2 | 0.15 | 0.81 | 0.33 | 87 | 1005.8 |
| 20260506152533 | 14 | 284 | 0.0 | 3.2 | 0.10 | 0.76 | 0.28 | 85 | 1006.4 |
| 20260506152029 | 14 | 283 | 0.0 | 1.6 | 0.03 | 0.66 | 0.18 | 84 | 1006.5 |
| 20260506151529 | 15 | 283 | 0.0 | 1.6 | 0.03 | 0.66 | 0.18 | 82 | 1006.4 |
| 20260506151032 | 15 | 283 | 0.0 | 4.8 | 0.03 | 0.66 | 0.18 | 78 | 1006.2 |
| 20260506150529 | 15 | 283 | 0.0 | 4.8 | 0.03 | 0.66 | 0.18 | 79 | 1006.0 |
| 20260506150020 | 15 | 208 | 1.6 | 11.3 | 0.03 | 0.66 | 0.18 | 81 | 1005.8 |
| 20260506145523 | 15 | 85 | 0.0 | 3.2 | 0.03 | 0.66 | 0.18 | 83 | 1005.6 |
| 20260506145018 | 16 | 263 | 0.0 | 3.2 | 0.03 | 0.66 | 0.18 | 84 | 1005.7 |
| 20260506144518 | 16 | 185 | 0.0 | 4.8 | 0.03 | 0.66 | 0.18 | 85 | 1005.7 |
| 20260506144021 | 15 | 307 | 0.0 | 1.6 | 0.03 | 0.66 | 0.18 | 87 | 1005.9 |
| 20260506143518 | 16 | 144 | 0.0 | 0.0 | 0.03 | 0.66 | 0.18 | 87 | 1005.9 |
| 20260506143021 | 16 | 144 | 0.0 | 0.0 | 0.03 | 0.66 | 0.18 | 87 | 1005.8 |
| 20260506142517 | 16 | 144 | 0.0 | 0.0 | 0.03 | 0.66 | 0.18 | 86 | 1005.8 |
| 20260506142016 | 16 | 144 | 0.0 | 0.0 | 0.00 | 0.64 | 0.15 | 86 | 1005.9 |
| 20260506141517 | 16 | 144 | 0.0 | 0.0 | 0.00 | 0.64 | 0.15 | 84 | 1005.9 |
| 20260506141016 | 17 | 144 | 0.0 | 0.0 | 0.00 | 0.64 | 0.15 | 81 | 1005.9 |
| 20260506140516 | 17 | 144 | 0.0 | 0.0 | 0.00 | 0.64 | 0.15 | 76 | 1006.0 |
| 20260506140016 | 18 | 144 | 0.0 | 0.0 | 0.00 | 0.64 | 0.15 | 72 | 1006.0 |
| 20260506135515 | 18 | 144 | 0.0 | 0.0 | 0.00 | 0.64 | 0.15 | 69 | 1006.0 |
| 20260506135014 | 19 | 144 | 0.0 | 0.0 | 0.00 | 0.64 | 0.15 | 67 | 1006.0 |
| 20260506134515 | 19 | 144 | 0.0 | 0.0 | 0.00 | 0.64 | 0.15 | 64 | 1006.0 |
| 20260506134015 | 20 | 144 | 0.0 | 0.0 | 0.00 | 0.64 | 0.15 | 62 | 1006.0 |
| 20260506133515 | 20 | 144 | 0.0 | 0.0 | 0.00 | 0.64 | 0.15 | 63 | 1006.0 |
| 20260506133015 | 20 | 144 | 0.0 | 0.0 | 0.00 | 0.64 | 0.15 | 58 | 1006.0 |
| 20260506132513 | 20 | 135 | 0.0 | 0.0 | 0.00 | 0.64 | 0.15 | 62 | 1006.1 |
| 20260506132016 | 20 | 135 | 0.0 | 0.0 | 0.00 | 0.64 | 0.15 | 63 | 1006.2 |
| 20260506131517 | 20 | 135 | 0.0 | 0.0 | 0.00 | 0.64 | 0.15 | 63 | 1006.2 |
| 20260506131012 | 20 | 135 | 0.0 | 0.0 | 0.00 | 0.64 | 0.15 | 64 | 1006.3 |
| 20260506130516 | 20 | 135 | 0.0 | 0.0 | 0.00 | 0.64 | 0.15 | 61 | 1006.3 |
| 20260506130015 | 20 | 347 | 0.0 | 0.0 | 0.00 | 0.64 | 0.15 | 63 | 1006.4 |
| 20260506125511 | 20 | 347 | 0.0 | 0.0 | 0.00 | 0.64 | 0.15 | 63 | 1006.4 |
| 20260506125013 | 20 | 346 | 0.0 | 0.0 | 0.00 | 0.64 | 0.15 | 63 | 1006.5 |
| 20260506124511 | 20 | 352 | 0.0 | 0.0 | 0.00 | 0.64 | 0.15 | 65 | 1006.4 |
| 20260506124011 | 20 | 352 | 0.0 | 4.8 | 0.00 | 0.64 | 0.15 | 62 | 1006.5 |
| 20260506123510 | 20 | 352 | 0.0 | 4.8 | 0.00 | 0.64 | 0.15 | 60 | 1006.6 |
| 20260506123009 | 21 | 350 | 0.0 | 6.4 | 0.00 | 0.64 | 0.15 | 57 | 1006.6 |
| 20260506122509 | 20 | 207 | 0.0 | 6.4 | 0.00 | 0.64 | 0.15 | 63 | 1006.7 |
| 20260506122008 | 20 | 298 | 0.0 | 4.8 | 0.00 | 0.64 | 0.15 | 62 | 1006.8 |
| 20260506121507 | 20 | 104 | 0.0 | 3.2 | 0.00 | 0.64 | 0.15 | 63 | 1006.9 |
| 20260506121006 | 19 | 296 | 0.0 | 3.2 | 0.00 | 0.64 | 0.15 | 70 | 1007.1 |
| 20260506120506 | 19 | 280 | 0.0 | 4.8 | 0.00 | 0.64 | 0.15 | 67 | 1007.1 |
| 20260506120005 | 20 | 105 | 0.0 | 4.8 | 0.00 | 0.64 | 0.15 | 67 | 1007.1 |
| 20260506115505 | 19 | 325 | 0.0 | 3.2 | 0.00 | 0.64 | 0.15 | 65 | 1007.0 |
| 20260506115005 | 19 | 103 | 0.0 | 4.8 | 0.00 | 0.64 | 0.15 | 63 | 1007.1 |
| 20260506114504 | 20 | 283 | 1.6 | 4.8 | 0.00 | 0.64 | 0.15 | 65 | 1007.1 |
| 20260506114003 | 19 | 346 | 0.0 | 8.0 | 0.00 | 0.64 | 0.15 | 64 | 1007.1 |
| 20260506113503 | 18 | 346 | 1.6 | 8.0 | 0.00 | 0.64 | 0.15 | 66 | 1007.2 |
| 20260506113005 | 18 | 207 | 0.0 | 3.2 | 0.00 | 0.64 | 0.15 | 67 | 1007.3 |
| 20260506112506 | 20 | 210 | 0.0 | 6.4 | 0.00 | 0.64 | 0.15 | 67 | 1007.3 |
| 20260506112003 | 20 | 313 | 0.0 | 3.2 | 0.00 | 0.64 | 0.15 | 66 | 1007.3 |
| 20260506111502 | 19 | 291 | 1.6 | 3.2 | 0.00 | 0.64 | 0.15 | 66 | 1007.5 |
| 20260506111001 | 18 | 317 | 0.0 | 6.4 | 0.00 | 0.64 | 0.15 | 66 | 1007.5 |
| 20260506110501 | 18 | 320 | 0.0 | 8.0 | 0.00 | 0.64 | 0.15 | 66 | 1007.5 |
| 20260506110001 | 19 | 349 | 1.6 | 8.0 | 0.00 | 0.64 | 0.15 | 68 | 1007.6 |
| 20260506105605 | 18 | 272 | 3.2 | 8.0 | 0.00 | 0.64 | 0.15 | 67 | 1007.5 |
| 20260506105059 | 19 | 299 | 1.6 | 8.0 | 0.00 | 0.64 | 0.15 | 67 | 1007.6 |
| 20260506104558 | 18 | 319 | 3.2 | 8.0 | 0.00 | 0.64 | 0.15 | 67 | 1007.6 |
| 20260506104057 | 18 | 126 | 0.0 | 12.9 | 0.00 | 0.64 | 0.15 | 69 | 1007.6 |
| 20260506103558 | 18 | 224 | 3.2 | 12.9 | 0.00 | 0.64 | 0.15 | 70 | 1007.7 |
| 20260506103057 | 18 | 236 | 0.0 | 6.4 | 0.00 | 0.64 | 0.15 | 70 | 1007.7 |
| 20260506102557 | 18 | 71 | 0.0 | 4.8 | 0.00 | 0.64 | 0.15 | 70 | 1007.6 |
| 20260506102056 | 18 | 310 | 0.0 | 4.8 | 0.00 | 0.64 | 0.15 | 71 | 1007.7 |
| 20260506101555 | 18 | 303 | 0.0 | 4.8 | 0.00 | 0.64 | 0.15 | 72 | 1007.6 |
| 20260506101054 | 18 | 278 | 1.6 | 4.8 | 0.00 | 0.64 | 0.15 | 70 | 1007.7 |
| 20260506100555 | 17 | 237 | 0.0 | 9.7 | 0.00 | 0.64 | 0.15 | 71 | 1007.8 |
| 20260506100054 | 17 | 325 | 1.6 | 9.7 | 0.00 | 0.64 | 0.15 | 73 | 1007.7 |
| 20260506095552 | 17 | 301 | 0.0 | 6.4 | 0.00 | 0.64 | 0.15 | 75 | 1007.8 |
| 20260506095052 | 17 | 302 | 0.0 | 6.4 | 0.00 | 0.64 | 0.15 | 73 | 1007.9 |
| 20260506094551 | 17 | 246 | 0.0 | 6.4 | 0.00 | 0.64 | 0.15 | 74 | 1007.8 |
| 20260506094050 | 17 | 302 | 0.0 | 8.0 | 0.00 | 0.64 | 0.15 | 75 | 1007.8 |
| 20260506093548 | 17 | 317 | 0.0 | 4.8 | 0.00 | 0.64 | 0.15 | 78 | 1007.8 |
| 20260506093051 | 16 | 201 | 0.0 | 6.4 | 0.00 | 0.64 | 0.15 | 75 | 1007.8 |
| 20260506092548 | 17 | 232 | 1.6 | 8.0 | 0.00 | 0.64 | 0.15 | 74 | 1007.9 |
| 20260506092047 | 16 | 193 | 1.6 | 8.0 | 0.00 | 0.64 | 0.15 | 76 | 1007.8 |
| 20260506091546 | 16 | 283 | 1.6 | 8.0 | 0.00 | 0.64 | 0.15 | 80 | 1007.9 |
| 20260506091045 | 15 | 241 | 0.0 | 8.0 | 0.00 | 0.64 | 0.15 | 79 | 1007.9 |
| 20260506090545 | 15 | 10 | 0.0 | 3.2 | 0.00 | 0.64 | 0.15 | 79 | 1007.9 |